TimeMST,TemperatureF,Dew PointF,Humidity,Sea Level PressureIn,VisibilityMPH,Wind Direction,Wind SpeedMPH,Gust SpeedMPH,PrecipitationIn,Events,Conditions,WindDirDegrees,DateUTC
12:55 AM,34.0,33.1,96,30.18,10.0,South,5.8,-,N/A,,Overcast,180,2012-11-14 07:55:00
3:55 AM,35.1,32.0,89,30.14,10.0,SW,4.6,-,N/A,,Overcast,220,2012-11-14 10:55:00
4:55 AM,36.0,33.1,89,30.13,10.0,SSE,9.2,-,0.00,Rain,Light Rain,160,2012-11-14 11:55:00
5:55 AM,37.0,34.0,89,30.12,10.0,South,8.1,-,N/A,,Overcast,180,2012-11-14 12:55:00
6:55 AM,37.0,34.0,89,30.12,10.0,South,6.9,-,N/A,,Overcast,190,2012-11-14 13:55:00
7:55 AM,37.0,35.1,93,30.14,10.0,SSE,9.2,-,N/A,,Overcast,160,2012-11-14 14:55:00
8:55 AM,37.9,35.1,89,30.16,10.0,SSE,10.4,-,N/A,,Overcast,160,2012-11-14 15:55:00
9:55 AM,39.9,36.0,86,30.17,10.0,South,8.1,-,N/A,,Overcast,170,2012-11-14 16:55:00
10:55 AM,41.0,35.1,79,30.19,10.0,South,8.1,-,N/A,,Overcast,170,2012-11-14 17:55:00
11:55 AM,41.0,35.1,79,30.19,10.0,South,8.1,-,N/A,,Overcast,170,2012-11-14 18:55:00
12:55 PM,42.1,35.1,76,30.19,10.0,SE,5.8,-,N/A,,Overcast,130,2012-11-14 19:55:00
1:55 PM,42.1,37.0,82,30.14,10.0,SSW,4.6,-,0.00,,Overcast,210,2012-11-14 20:55:00
2:55 PM,44.1,36.0,73,30.13,10.0,South,8.1,-,N/A,,Mostly Cloudy,180,2012-11-14 21:55:00
3:55 PM,41.0,35.1,79,30.21,10.0,South,6.9,-,N/A,,Mostly Cloudy,180,2012-11-14 22:55:00
4:55 PM,39.0,35.1,86,30.23,10.0,Calm,Calm,-,N/A,,Overcast,0,2012-11-14 23:55:00
5:55 PM,37.9,34.0,86,30.24,10.0,South,5.8,-,N/A,,Overcast,190,2012-11-15 00:55:00
6:55 PM,34.0,30.9,89,30.27,10.0,SW,3.5,-,N/A,,Partly Cloudy,220,2012-11-15 01:55:00
7:55 PM,32.0,28.9,88,30.30,10.0,Calm,Calm,-,N/A,,Clear,0,2012-11-15 02:55:00
8:55 PM,30.0,28.0,92,30.31,10.0,Calm,Calm,-,N/A,,Clear,0,2012-11-15 03:55:00
9:55 PM,28.0,27.0,96,30.32,10.0,Calm,Calm,-,N/A,,Clear,0,2012-11-15 04:55:00
10:55 PM,25.0,24.1,96,30.34,10.0,Calm,Calm,-,N/A,,Clear,0,2012-11-15 05:55:00
11:55 PM,21.9,21.9,100,30.35,10.0,Calm,Calm,-,N/A,,Clear,0,2012-11-15 06:55:00